Flag for Azerbaijan Weather past 2 weeks in Ganja, Azerbaijan

Now
72 °F

Partly sunny.


Feels Like: 77 °F
Forecast: 60 / 75 °F
Wind: 9 mph from East

Location: Gyanca Airport

Current Time: May 23, 2015 at 12:51:41 PM

Latest Report: May 23, 2015 at 12:00 PM


Visibility: N/A

Pressure: 30.07 "Hg

Humidity: 41%

Dew point: 46 °F

Location of GanjaLocation

Historic Weather in Ganja — Graph

°F

Ganja temperature yesterday

Maximum temperature yesterday: 79 °F (at 5:00 PM)
Minimum temperature yesterday: 57 °F (at 6:00 AM)
Average temperature yesterday: 68 °F

Past Weeks' High & Low Weather Summary

 TemperatureHumidityPressure
High81 °F (May 19, 4:30 PM)100% (May 9, 6:30 AM)30.09 "Hg (May 9, 6:30 AM)
Low50 °F (May 9, 6:30 AM)14% (May 8, 7:00 PM)29.80 "Hg (May 8, 7:30 PM)
Average64 °F71%29.98 "Hg
* Reported May 8 11:00 AM — May 23 11:30 AM, Ganja, Weather by CustomWeather, © 2015

Note: Actual official high and low records may vary slightly from our data, if they occured in-between our weather recording intervals... More about our weather records

Advertising

Ganja weather history for previous 24 hours

 ConditionsComfort  
Time TempWeatherWind HumidityBarometerVisibility
11:30 AM
Sat, May 23
70 °FPartly sunny.7 mph46%30.07 "HgN/A
11:00 AM68 °FPartly sunny.6 mph49%30.07 "HgN/A
10:30 AM64 °FPartly sunny.5 mph60%30.07 "HgN/A
10:00 AM64 °FOvercast.2 mph56%30.07 "HgN/A
9:30 AM64 °FOvercast.7 mph56%30.07 "HgN/A
9:00 AM63 °FOvercast.9 mph59%30.07 "HgN/A
8:30 AM63 °FOvercast.12 mph59%30.04 "HgN/A
8:00 AM61 °FOvercast.12 mph63%30.04 "HgN/A
7:30 AM61 °FOvercast.10 mph63%30.04 "HgN/A
7:00 AM61 °FOvercast.6 mph59%30.07 "HgN/A
6:30 AM63 °FOvercast.5 mph56%30.07 "HgN/A
6:00 AM63 °FOvercast.3 mph52%30.07 "HgN/A
5:30 AM63 °FOvercast.6 mph52%30.07 "HgN/A
5:00 AM63 °FOvercast.6 mph52%30.07 "HgN/A
4:30 AM63 °FOvercast.6 mph56%30.04 "HgN/A
4:00 AM63 °FPassing clouds.5 mph68%30.04 "HgN/A
3:30 AM63 °FPassing clouds.5 mph68%30.04 "HgN/A
3:00 AM61 °FPassing clouds.8 mph72%30.04 "HgN/A
2:00 AM63 °FPassing clouds.12 mph68%30.04 "HgN/A
1:30 AM64 °FPassing clouds.12 mph64%30.04 "HgN/A
1:00 AM66 °FPassing clouds.13 mph56%30.04 "HgN/A
12:30 AM68 °FPassing clouds.13 mph56%30.04 "HgN/A
12:00 AM70 °FPassing clouds.12 mph50%30.04 "HgN/A
11:30 PM
Fri, May 22
70 °FPassing clouds.15 mph53%30.04 "HgN/A
11:00 PM72 °FThundershowers. More clouds than sun.17 mph53%30.07 "HgN/A
10:30 PM72 °FThundershowers. More clouds than sun.12 mph53%30.04 "HgN/A
10:00 PM70 °FThundershowers. Broken clouds.14 mph57%30.01 "HgN/A
9:30 PM72 °FPartly sunny.12 mph53%30.01 "HgN/A
9:00 PM73 °FPartly sunny.12 mph50%30.01 "HgN/A
8:30 PM73 °FPartly sunny.10 mph50%30.04 "HgN/A
8:00 PM73 °FPartly sunny.13 mph50%30.01 "HgN/A
7:30 PM75 °FPartly sunny.12 mph44%30.01 "HgN/A
7:00 PM75 °FPartly sunny.15 mph44%30.01 "HgN/A
6:30 PM77 °FPartly sunny.18 mph44%30.01 "HgN/A
6:00 PM77 °FScattered clouds.17 mph44%29.98 "HgN/A
5:30 PM77 °FScattered clouds.16 mph47%30.01 "HgN/A
5:00 PM79 °FScattered clouds.16 mph42%30.01 "HgN/A
4:30 PM77 °FScattered clouds.15 mph47%30.01 "HgN/A
4:00 PM77 °FScattered clouds.13 mph47%30.01 "HgN/A
3:30 PM77 °FScattered clouds.14 mph44%30.01 "HgN/A
3:00 PM77 °FPassing clouds.13 mph44%30.04 "HgN/A
2:30 PM75 °FPassing clouds.10 mph47%30.04 "HgN/A
2:00 PM75 °FPassing clouds.12 mph50%30.01 "HgN/A
1:30 PM73 °FPassing clouds.12 mph50%30.04 "HgN/A
1:00 PM73 °FScattered clouds.13 mph53%30.04 "HgN/A
12:30 PM72 °FScattered clouds.12 mph53%30.04 "HgN/A
12:00 PM70 °FScattered clouds.9 mph64%30.04 "HgN/A
Weather by CustomWeather, © 2015

See weather overviewHow to use our weather pages